Flag for Germany Weather past 2 weeks in Springe, Lower Saxony, Germany

Now
63 °F

Partly sunny.


Feels Like: 63 °F
Forecast: 49 / 64 °F
Wind: 20 mph from West

Location: Wunstorf Airport

Current Time: May 5, 2015 at 7:18:08 PM

Latest Report: May 5, 2015 at 6:20 PM


Visibility: N/A

Pressure: 29.62 "Hg

Humidity: 77%

Dew point: 55 °F

Location of SpringeLocation

Historic Weather in Springe — Graph

°F

Springe temperature yesterday

Maximum temperature yesterday: 68 °F (at 2:20 PM)
Minimum temperature yesterday: 54 °F (at 6:20 AM)
Average temperature yesterday: 61 °F

Past Weeks' High & Low Weather Summary

 TemperatureHumidityPressure
High75 °F (May 5, 2:20 PM)100% (Apr 23, 5:20 AM)30.42 "Hg (Apr 23, 5:20 AM)
Low34 °F (Apr 28, 5:20 AM)28% (Apr 21, 5:20 PM)29.47 "Hg (May 5, 6:20 AM)
Average51 °F70%29.91 "Hg
* Reported Apr 20 5:20 PM — May 5 5:20 PM, Springe, Weather by CustomWeather, © 2015

Note: Actual official high and low records may vary slightly from our data, if they occured in-between our weather recording intervals... More about our weather records

Advertising

Springe weather history for previous 24 hours

 ConditionsComfort  
Time TempWeatherWind HumidityBarometerVisibility
5:20 PM
Tue, May 5
66 °FSprinkles. Partly sunny.25 mph64%29.56 "HgN/A
5:03 PM70 °FSprinkles. Partly sunny.25 mph53%29.56 "HgN/A
4:20 PM75 °FSprinkles. Broken clouds.20 mph41%29.50 "HgN/A
3:20 PM75 °FScattered clouds.21 mph54%29.47 "HgN/A
2:20 PM75 °FPassing clouds.23 mph61%29.47 "HgN/A
1:20 PM66 °FBroken clouds.12 mph83%29.47 "HgN/A
12:51 PM66 °FThunderstorms. Broken clouds.12 mph78%29.56 "HgN/A
12:20 PM68 °FLight rain. Partly sunny.10 mph78%29.50 "HgN/A
11:20 AM66 °FLight rain. Broken clouds.14 mph78%29.53 "HgN/A
10:20 AM68 °FLight rain. Partly sunny.15 mph73%29.50 "HgN/A
9:20 AM68 °FScattered clouds.15 mph69%29.47 "HgN/A
8:20 AM66 °FScattered clouds.21 mph73%29.47 "HgN/A
7:20 AM61 °FScattered clouds.15 mph83%29.47 "HgN/A
6:20 AM59 °FPassing clouds.12 mph82%29.47 "HgN/A
5:20 AM57 °FLight rain. Partly cloudy.12 mph88%29.50 "HgN/A
4:20 AM57 °FLight rain. Partly cloudy.12 mph82%29.53 "HgN/A
3:20 AM59 °FLight rain. Passing clouds.10 mph77%29.59 "HgN/A
2:20 AM59 °FLight rain. Passing clouds.9 mph77%29.62 "HgN/A
1:20 AM57 °FMostly cloudy.7 mph77%29.65 "HgN/A
12:20 AM59 °FPartly cloudy.6 mph68%29.68 "HgN/A
11:20 PM
Mon, May 4
59 °FPassing clouds.5 mph68%29.71 "HgN/A
10:20 PM61 °FPassing clouds.8 mph63%29.74 "HgN/A
9:20 PM63 °FPartly sunny.5 mph59%29.74 "HgN/A
8:20 PM64 °FPartly sunny.5 mph56%29.77 "HgN/A
7:20 PM68 °FPartly sunny.5 mph49%29.77 "HgN/A
Weather by CustomWeather, © 2015

See weather overviewHow to use our weather pages